Tracking 17752 objects as of 1-July-2016
HD Live streaming from Space Station
objects crossing your sky now

GALAXY 14

Track GALAXY 14 now!
GALAXY 14 is classified as:


NORAD ID: 28790
Int'l Code: 2005-030A
Perigee: 35,782.9 km
Apogee: 35,803.9 km
Inclination: 0.0 °
Period: 1,436.1 minutes
Semi major axis: 42164 km
RCS: 19.9526 m2 (large)
Launch date: August 13, 2005
Source: United States (US)
Launch site: TYURATAM MISSILE AND SPACE COMPLEX (TTMTR)

24 C-band transponders; North America, Caribbean.
Your satellite tracking list
Your tracking list is empty





NASA's NSSDC Master Catalog

Two Line Element Set (TLE):
1 28790U 05030A   16181.32448495  .00000027  00000-0  00000+0 0  9998
2 28790   0.0116   7.4970 0002489  98.4248 163.7287  1.00273139 39801
Source of the keplerian elements: AFSPC

N2YO: 852